Miscellaneous Local Product
Issued by NWS North Platte, NE

Home | Current Version | Previous Version | Text Only | Print | Product List | Glossary On
Versions: 1 2 3 4 5 6 7 8 9 10 11 12 13 14 15 16 17 18 19 20 21 22 23 24 25 26 27 28 29 30 31 32 33 34 35 36 37 38 39 40 41 42 43 44 45 46 47 48 49 50
000
AXUS43 KLBF 220510
MISLBF


WESTERN AND NORTH CENTRAL NEBRASKA HOURLY WEATHER ROUNDUP
NATIONAL WEATHER SERVICE NORTH PLATTE NE
1200 AM CDT FRI MAY 22 2015

***STATIONS NOT REPORTING VARIABLES SUCH AS SKY/WEATHER OR
PRESSURE ARE PROVIDED BY THE NEBRASKA DEPARTMENT OF
ROADS...RAWS...AND APRS NETWORKS...AND ARE NOT UNDER
NATIONAL WEATHER SERVICE QUALITY CONTROL***

...OBSERVATIONS IN AND NEAR THE EASTERN PANHANDLE OF NEBRASKA...

CITY           SKY/WX    TMP DP  RH WIND       PRES   REMARKS
PINE RIDGE     CLOUDY    54  43  66 S8        30.15S
CHADRON        CLOUDY    55  44  66 SE14      30.14S
ALLIANCE       CLOUDY    52  44  74 SE12      30.15F
SIDNEY         CLOUDY    50  44  80 S9        30.17F
WHITECLAY        N/A     51  43  74 S6          N/A
BIG SPRINGS      N/A     53  46  76 SE12        N/A
$$

...OBSERVATIONS IN NORTH CENTRAL NEBRASKA...

CITY           SKY/WX    TMP DP  RH WIND       PRES   REMARKS
VALENTINE      CLEAR     50  36  58 S9        30.18S
THEDFORD       CLOUDY    54  41  62 S8        30.21S
AINSWORTH      CLEAR     45  38  77 S7        30.20R
O`NEILL        CLEAR     54  38  56 SW3       30.20F
ORD            CLEAR     44  37  76 SW3       30.20S
BROKEN BOW     PTCLDY    44  41  89 CALM      30.21R
BROWNLEE         N/A     53  35  51 SE6         N/A
BREWSTER         N/A     47  37  69 S5          N/A
ROSE             N/A     54  37  54 E5          N/A
NEWPORT          N/A     45  37  76 S5          N/A
COMSTOCK         N/A     50  37  59 S6          N/A
$$

...OBSERVATIONS IN SOUTHWEST NEBRASKA AND FAR NORTHEAST COLORADO...

CITY           SKY/WX    TMP DP  RH WIND       PRES   REMARKS
WRAY           CLOUDY    53  44  73 SE9       30.17F
IMPERIAL       CLOUDY    53  45  74 S7        30.18F
OGALLALA       CLOUDY    53  46  77 E5        30.18S
NORTH PLATTE   CLOUDY    54  41  61 SE7       30.21S
MCCOOK         MOCLDY    49  43  80 SE6       30.20F
LEXINGTON      MOCLDY    49  42  76 S6        30.22S
PAXTON           N/A     53  46  77 E5          N/A
GOTHENBURG       N/A     51  38  62 SE3         N/A
CALLAWAY         N/A     47  42  83 SE3         N/A
$$

...NORTH PLATTE AREA...

CITY           SKY/WX    TMP DP  RH WIND       PRES   REMARKS
AIRPORT        CLOUDY    54  41  61 SE7       30.21S
$$

...SOME WEATHER OBSERVATIONS FROM AROUND THE REGION...

CITY           SKY/WX    TMP DP  RH WIND       PRES   REMARKS
DENVER         CLOUDY    49  44  83 SE14      30.10F
LARAMIE        CLOUDY    43  39  86 SE20G25   30.09F
CHEYENNE       CLOUDY    45  42  89 SE15      30.11F
SCOTTSBLUFF    CLOUDY    52  44  74 SE13      30.13F
RAPID CITY     PTCLDY    49  42  77 E5        30.13S
PIERRE         CLEAR     58  33  39 CALM      30.14S
WINNER         FAIR      51  35  54 S8        30.17F
SIOUX FALLS    CLEAR     56  39  53 W5        30.15R
OMAHA          PTCLDY    62  40  44 SW6       30.18R
GRAND ISLAND   MOCLDY    50  42  74 S6        30.23S
KANSAS CITY    MOCLDY    53  45  74 SW8       30.22R
WICHITA        MOCLDY    54  46  74 E7        30.22F
HAYS           MOCLDY    48  39  71 E9        30.21F
LIBERAL        CLOUDY    54  45  71 E13       30.18F
GOODLAND       CLOUDY    50  45  83 SE8       30.20S
$$



USA.gov is the U.S. government's official web portal to all federal, state and local government web resources and services.